Location: Bussy-Saint-Georges
(48.8410°N, 2.7017°E)
Time: 15:04:31
(UTC+00:00)

Cosmos 2123 Rocket - Pass Details

Date: 18 October 2021
Orbit: 961 x 992 km, 82.9° (Epoch: 29 November)

Event Time Altitude Azimuth Distance (km) Brightness Sun altitude
Rises 18:48:42 0° 349° (NNW) 3,720 7.3 -19.7°
Reaches altitude 10° 18:51:15 10° 347° (NNW) 2,767 6.6 -20.1°
Maximum altitude 18:57:33 70° 265° (W) 1,050 4.3 -21.1°
Drops below altitude 10° 19:03:48 10° 183° (S) 2,738 6.3 -22.1°
Sets 19:06:18 0° 181° (S) 3,678 6.9 -22.5°
